Portada
METAR-TAF:

METAR-TAF

Aeroports :

Roseau, Dominica

latitud: 15-32N, longitud: 061-24W, altitud: 5 m

Observació

L'informe es va fer fa 56 minuts, a les 13:00 UTC
Vent 2 kt del Oest
Temperatura 32°C
Humitat 67%
Pressió 1014 hPa
Visibilitat 10 km o més
Núvols disperses a una alçada de 2400 ft

METAR: TDCF 261300Z 28002KT 9999 SCT024 32/25 Q1014

Hora: 09:56 (13:56 UTC)


TAF: manca

Observacions i pronòstics meteorològics de més de 4000 aeroports (METAR i TAF).

Les estacions disponibles són els punts grocs i vermells al mapa.

Posi el ratolí al punt desitjat per veure el nom de l'estació.

Feu clic per veure les observacions i els pronòstics meteorològics.

Per canviar el mapa: feu clic els botons verds amb una creu de color negre per apropar; al botó verd amb un guió per allunyar la imatge; o en les fletxes verdes per a mapes adjacents.


METAR-TAF: